map of CWC home
CWC - Airport
Location
City:  Chernivtsi, Chernivtsi, Ukraine
Near (Alt.):Chernovtsy
ICAO:UKLN
IATA:CWC

Details
Type:Airport (Aerodrome, Airfield)
Use:Public/Civil, International (customs port of entry)
Latitude:4815'34"N (48.259322)
Longitude:2558'51"E (25.980831)
Datum:WGS 1984
Elevation:826 ft (252 m)
Variation:6.46E (WMM2015v2 magnetic declination)
0.14 annual change
Runways:1
Longest:7270 × 138 ft (2216 × 42 m), paved

Time
Time Zone:UTC+2 (DST+3)
Local Time:

Weather
METAR:UKLN 041330Z 30005MPS 260V340 CAVOK 04/00 Q1026 R33/19//70 NOSIG

Related Locations
Nearby:
Farthest:CHT: 11321 mi / 18220 km
Waitangi [Tuuta], CIT, NZ

Find:

   beyond  
but within

Other Information
Maps:
NOTAMs:
Links:
Sources:

  
  • flag of Ukraine
  • flag of Chernivtsi
  

Sectional Chart

Flight Planning
at skyvector.com

Satellite Image

Google Maps Satellite view

 

Copyright © 2004-2019 Karl L. Swartz. All rights reserved.
The Great Circle Mapper name and logo are trademarks of the Great Circle Mapper.
All other trademarks mentioned herein belong to their respective owners.
Please see credits for attibutions and further copyright information.

  Follow gcmap on Facebook Follow gcmap on Twitter GCmap on LinkedIn

hCard Microformat

Geo Microformat